Location: Kalisz
(51.7636°N, 18.0893°E)
Time: 22:39:01
(UTC+01:00)

ISS - Pass Details

Date: 27 January 2019
Orbit: 403 x 411 km, 51.6° (Epoch: 18 February)

Event Time Altitude Azimuth Distance (km) Brightness Sun altitude
Rises 18:22:37 0° 244° (WSW) 2,330 1.4 -17.7°
Reaches altitude 10° 18:24:42 10° 241° (WSW) 1,473 0.0 -18.1°
Maximum altitude 18:27:58 58° 161° (SSE) 486 -3.6 -18.6°
Enters shadow 18:28:11 56° 140° (SE) 496 -3.7 -18.6°
